Location: Casteau
(50.5142°N, 4.0161°E)
Time: 05:28:13
(UTC+00:00)

ATLAS CENTAUR R/B - Pass Details

Date: 18 September 2020
Orbit: 479 x 667 km, 64.7° (Epoch: 12 October)

Event Time Altitude Azimuth Distance (km) Brightness Sun altitude
Rises 19:27:16 0° 279° (W) 2,633 6.4 -15.8°
Reaches altitude 10° 19:30:23 10° 306° (NW) 1,715 5.1 -16.3°
Maximum altitude 19:32:27 14° 339° (NNW) 1,467 4.1 -16.6°
Drops below altitude 10° 19:34:28 10° 12° (NNE) 1,685 3.9 -16.9°
Sets 19:37:29 0° 39° (NE) 2,553 4.6 -17.3°
Enters shadow 19:37:33 - 39° (NE) 2,573 4.6 -17.3°
